APG553 RPVE-RPVM

Flight info

Callsign APG553
Flight time 0h 34m
Altitude 21000
Route KLO8A/06 KLO TR15 ROX B473 DUDAR DUDAR3P/04L
Aircraft A320/M-SDE3FGHIRWY/LB1

Departure

Time 2026-04-25 01:29
Airport Godofredo P. Ramos Airport (RPVE)

Arrival

Time 2026-04-25 02:04
Airport Mactan Cebu International Airport (RPVM)
Time Latitude Longitude Altitude Speed Heading
2026-04-25 01:09 11.92520 121.96308 58 ft 0 kts 63°
2026-04-25 01:18 11.92520 121.96307 58 ft 0 kts 63°
2026-04-25 01:18 11.92516 121.96300 57 ft 2 kts 63°
2026-04-25 01:19 11.92510 121.96286 57 ft 2 kts 63°
2026-04-25 01:19 11.92505 121.96278 57 ft 2 kts 56°
2026-04-25 01:19 11.92494 121.96268 57 ft 2 kts 21°
2026-04-25 01:19 11.92479 121.96265 57 ft 2 kts 353°
2026-04-25 01:20 11.92470 121.96268 56 ft 0 kts 334°
2026-04-25 01:20 11.92476 121.96265 57 ft 4 kts 335°
2026-04-25 01:20 11.92498 121.96253 57 ft 1 kts 333°
2026-04-25 01:20 11.92499 121.96253 57 ft 0 kts 333°
2026-04-25 01:22 11.92508 121.96248 57 ft 2 kts 333°
2026-04-25 01:23 11.92534 121.96235 57 ft 4 kts 333°
2026-04-25 01:23 11.92561 121.96220 57 ft 3 kts 333°
2026-04-25 01:23 11.92587 121.96207 57 ft 4 kts 333°
2026-04-25 01:23 11.92617 121.96195 57 ft 4 kts 353°
2026-04-25 01:24 11.92649 121.96191 58 ft 4 kts 344°
2026-04-25 01:24 11.92689 121.96171 58 ft 8 kts 333°
2026-04-25 01:24 11.92745 121.96142 58 ft 9 kts 333°
2026-04-25 01:24 11.92788 121.96118 58 ft 6 kts 324°
2026-04-25 01:25 11.92798 121.96073 57 ft 8 kts 250°
2026-04-25 01:25 11.92763 121.96008 54 ft 12 kts 239°
2026-04-25 01:25 11.92717 121.95918 50 ft 16 kts 243°
2026-04-25 01:25 11.92661 121.95805 45 ft 19 kts 243°
2026-04-25 01:26 11.92594 121.95676 38 ft 22 kts 243°
2026-04-25 01:26 11.92517 121.95522 30 ft 25 kts 242°
2026-04-25 01:26 11.92433 121.95353 22 ft 27 kts 243°
2026-04-25 01:26 11.92354 121.95196 20 ft 23 kts 243°
2026-04-25 01:27 11.92303 121.95094 20 ft 9 kts 243°
2026-04-25 01:27 11.92255 121.95043 19 ft 7 kts 216°
2026-04-25 01:27 11.92236 121.95003 19 ft 6 kts 291°
2026-04-25 01:28 11.92279 121.95042 19 ft 5 kts 76°
2026-04-25 01:28 11.92284 121.95054 20 ft 0 kts 64°
2026-04-25 01:28 11.92360 121.95208 20 ft 62 kts 62°
2026-04-25 01:29 11.92669 121.95820 46 ft 128 kts 62°
2026-04-25 01:29 11.93126 121.96716 419 ft 148 kts 62°
2026-04-25 01:29 11.93599 121.97649 1025 ft 151 kts 65°
2026-04-25 01:29 11.94070 121.98595 1676 ft 152 kts 65°
2026-04-25 01:30 11.94550 121.99564 2052 ft 159 kts 66°
2026-04-25 01:30 11.95066 122.00617 2341 ft 174 kts 66°
2026-04-25 01:30 11.95578 122.01679 2626 ft 188 kts 71°
2026-04-25 01:30 11.95707 122.03101 2937 ft 201 kts 104°
2026-04-25 01:31 11.95022 122.04425 3189 ft 222 kts 128°
2026-04-25 01:31 11.94016 122.05695 3592 ft 239 kts 130°
2026-04-25 01:31 11.92922 122.07051 3996 ft 256 kts 129°
2026-04-25 01:31 11.91771 122.08498 4615 ft 264 kts 129°
2026-04-25 01:32 11.90624 122.09949 5376 ft 267 kts 129°
2026-04-25 01:32 11.89449 122.11440 6133 ft 270 kts 130°
2026-04-25 01:32 11.88262 122.12953 6844 ft 275 kts 130°
2026-04-25 01:32 11.87061 122.14479 7584 ft 279 kts 130°
2026-04-25 01:33 11.85839 122.16035 8336 ft 283 kts 130°
2026-04-25 01:33 11.84601 122.17611 9018 ft 288 kts 131°
2026-04-25 01:33 11.83328 122.19230 9718 ft 293 kts 131°
2026-04-25 01:33 11.82046 122.20862 10381 ft 299 kts 130°
2026-04-25 01:34 11.80703 122.22568 10756 ft 316 kts 130°
2026-04-25 01:34 11.79262 122.24399 11076 ft 334 kts 130°
2026-04-25 01:34 11.77734 122.26344 11550 ft 345 kts 130°
2026-04-25 01:34 11.76230 122.28258 12201 ft 349 kts 130°
2026-04-25 01:35 11.74707 122.30200 12869 ft 352 kts 130°
2026-04-25 01:35 11.73167 122.32162 13533 ft 355 kts 130°
2026-04-25 01:35 11.71629 122.34120 14177 ft 358 kts 130°
2026-04-25 01:35 11.70075 122.36108 14808 ft 361 kts 128°
2026-04-25 01:36 11.68716 122.38303 15423 ft 366 kts 117°
2026-04-25 01:36 11.67760 122.40734 16045 ft 369 kts 107°
2026-04-25 01:36 11.67123 122.43256 16655 ft 372 kts 104°
2026-04-25 01:36 11.66545 122.45843 17240 ft 375 kts 103°
2026-04-25 01:37 11.65966 122.48457 17816 ft 378 kts 103°
2026-04-25 01:37 11.65381 122.51049 18373 ft 381 kts 104°
2026-04-25 01:37 11.64768 122.53719 18927 ft 383 kts 104°
2026-04-25 01:37 11.64154 122.56363 19458 ft 386 kts 104°
2026-04-25 01:38 11.63531 122.59040 19980 ft 389 kts 104°
2026-04-25 01:38 11.62906 122.61720 20488 ft 391 kts 104°
2026-04-25 01:38 11.62272 122.64439 20896 ft 394 kts 104°
2026-04-25 01:38 11.61635 122.67170 20994 ft 394 kts 104°
2026-04-25 01:39 11.60999 122.69894 20996 ft 394 kts 104°
2026-04-25 01:39 11.60333 122.72587 20992 ft 393 kts 109°
2026-04-25 01:39 11.59093 122.75081 20985 ft 391 kts 128°
2026-04-25 01:39 11.57158 122.77018 20992 ft 388 kts 147°
2026-04-25 01:40 11.54855 122.78451 21003 ft 387 kts 152°
2026-04-25 01:40 11.52509 122.79797 21000 ft 387 kts 152°
2026-04-25 01:40 11.50127 122.81160 20999 ft 387 kts 152°
2026-04-25 01:40 11.47773 122.82522 20998 ft 387 kts 152°
2026-04-25 01:41 11.45470 122.83867 20998 ft 387 kts 152°
2026-04-25 01:41 11.43115 122.85249 20998 ft 387 kts 151°
2026-04-25 01:41 11.40805 122.86609 20998 ft 387 kts 151°
2026-04-25 01:41 11.38441 122.88002 20998 ft 387 kts 151°
2026-04-25 01:42 11.36090 122.89387 20998 ft 387 kts 151°
2026-04-25 01:42 11.33755 122.90762 20998 ft 388 kts 151°
2026-04-25 01:42 11.31401 122.92145 20998 ft 388 kts 151°
2026-04-25 01:42 11.29082 122.93507 20998 ft 388 kts 151°
2026-04-25 01:43 11.26716 122.94898 20998 ft 388 kts 151°
2026-04-25 01:43 11.24430 122.96241 20998 ft 388 kts 151°
2026-04-25 01:43 11.22088 122.97618 20998 ft 388 kts 151°
2026-04-25 01:43 11.19767 122.98983 20998 ft 388 kts 151°
2026-04-25 01:44 11.17468 123.00335 20998 ft 389 kts 151°
2026-04-25 01:44 11.15144 123.01701 20998 ft 389 kts 151°
2026-04-25 01:44 11.12873 123.03037 20998 ft 389 kts 151°
2026-04-25 01:44 11.10525 123.04417 20998 ft 389 kts 151°
2026-04-25 01:45 11.08158 123.05808 20998 ft 389 kts 151°
2026-04-25 01:45 11.05787 123.07202 20998 ft 389 kts 151°
2026-04-25 01:45 11.03447 123.08578 20998 ft 390 kts 151°
2026-04-25 01:45 11.01085 123.09965 20998 ft 389 kts 151°
2026-04-25 01:46 10.98755 123.11333 20998 ft 389 kts 151°
2026-04-25 01:46 10.96388 123.12721 20988 ft 389 kts 151°
2026-04-25 01:46 10.94033 123.14101 20562 ft 393 kts 151°
2026-04-25 01:46 10.91661 123.15492 19827 ft 395 kts 151°
2026-04-25 01:47 10.89243 123.16910 19263 ft 393 kts 151°
2026-04-25 01:47 10.86856 123.18311 18747 ft 389 kts 151°
2026-04-25 01:47 10.84430 123.19736 18231 ft 385 kts 151°
2026-04-25 01:47 10.82001 123.21162 17714 ft 382 kts 151°
2026-04-25 01:48 10.79633 123.22549 17211 ft 378 kts 151°
2026-04-25 01:48 10.77365 123.23879 16727 ft 376 kts 152°
2026-04-25 01:48 10.75122 123.25258 16239 ft 373 kts 148°
2026-04-25 01:48 10.73024 123.26798 15757 ft 372 kts 143°
2026-04-25 01:49 10.71068 123.28505 15278 ft 370 kts 139°
2026-04-25 01:49 10.69178 123.30257 14802 ft 368 kts 139°
2026-04-25 01:49 10.67292 123.32023 14324 ft 366 kts 139°
2026-04-25 01:49 10.65409 123.33782 13846 ft 364 kts 139°
2026-04-25 01:50 10.63539 123.35524 13372 ft 361 kts 139°
2026-04-25 01:50 10.61705 123.37228 12906 ft 359 kts 139°
2026-04-25 01:50 10.59864 123.38937 12439 ft 356 kts 139°
2026-04-25 01:50 10.58032 123.40634 11972 ft 354 kts 139°
2026-04-25 01:51 10.56208 123.42325 11508 ft 351 kts 139°
2026-04-25 01:51 10.54416 123.43984 11050 ft 349 kts 138°
2026-04-25 01:51 10.52608 123.45657 10595 ft 346 kts 138°
2026-04-25 01:51 10.50849 123.47285 10341 ft 336 kts 138°
2026-04-25 01:52 10.49162 123.48847 10211 ft 323 kts 138°
2026-04-25 01:52 10.47514 123.50377 10079 ft 310 kts 138°
2026-04-25 01:52 10.45928 123.51845 9885 ft 302 kts 138°
2026-04-25 01:52 10.44375 123.53281 9504 ft 300 kts 137°
2026-04-25 01:53 10.42858 123.54687 9147 ft 299 kts 137°
2026-04-25 01:53 10.41327 123.56105 8791 ft 297 kts 137°
2026-04-25 01:53 10.39802 123.57516 8440 ft 295 kts 137°
2026-04-25 01:53 10.38304 123.58901 8098 ft 293 kts 137°
2026-04-25 01:54 10.36824 123.60268 7760 ft 291 kts 137°
2026-04-25 01:54 10.35323 123.61652 7422 ft 288 kts 136°
2026-04-25 01:54 10.33889 123.63031 7091 ft 286 kts 134°
2026-04-25 01:54 10.32611 123.64329 6847 ft 280 kts 135°
2026-04-25 01:55 10.31207 123.65764 6527 ft 276 kts 135°
2026-04-25 01:55 10.30000 123.66994 6232 ft 274 kts 135°
2026-04-25 01:55 10.28645 123.68374 5899 ft 271 kts 135°
2026-04-25 01:55 10.27371 123.69670 5583 ft 269 kts 135°
2026-04-25 01:56 10.26048 123.71016 5255 ft 267 kts 135°
2026-04-25 01:56 10.24737 123.72349 4927 ft 265 kts 135°
2026-04-25 01:56 10.23438 123.73669 4602 ft 263 kts 135°
2026-04-25 01:56 10.22129 123.75000 4273 ft 261 kts 135°
2026-04-25 01:57 10.19562 123.77607 3640 ft 261 kts 135°
2026-04-25 01:57 10.18286 123.78903 3360 ft 256 kts 135°
2026-04-25 01:57 10.17084 123.80126 3333 ft 242 kts 134°
2026-04-25 01:58 10.16207 123.81579 3235 ft 230 kts 99°
2026-04-25 01:58 10.16359 123.83102 3173 ft 216 kts 64°
2026-04-25 01:58 10.17153 123.84188 3125 ft 204 kts 44°
2026-04-25 01:58 10.18203 123.85194 3072 ft 201 kts 43°
2026-04-25 01:59 10.19194 123.86126 3013 ft 185 kts 43°
2026-04-25 01:59 10.20080 123.86977 2836 ft 168 kts 44°
2026-04-25 01:59 10.20867 123.87748 2672 ft 154 kts 44°
2026-04-25 01:59 10.21612 123.88486 2411 ft 143 kts 44°
2026-04-25 02:00 10.22301 123.89173 2212 ft 139 kts 44°
2026-04-25 02:00 10.22991 123.89862 2035 ft 139 kts 44°
2026-04-25 02:00 10.23675 123.90549 1853 ft 139 kts 44°
2026-04-25 02:00 10.24367 123.91241 1670 ft 138 kts 44°
2026-04-25 02:01 10.25038 123.91914 1490 ft 138 kts 44°
2026-04-25 02:01 10.25719 123.92598 1303 ft 138 kts 44°
2026-04-25 02:01 10.26389 123.93269 1125 ft 137 kts 44°
2026-04-25 02:01 10.27061 123.93942 943 ft 137 kts 44°
2026-04-25 02:02 10.27742 123.94627 758 ft 137 kts 45°
2026-04-25 02:02 10.28381 123.95289 572 ft 136 kts 45°
2026-04-25 02:03 10.28511 123.95423 532 ft 136 kts 45°
2026-04-25 02:03 10.29174 123.96093 346 ft 134 kts 46°
2026-04-25 02:03 10.29846 123.96744 176 ft 131 kts 47°
2026-04-25 02:03 10.30494 123.97405 51 ft 127 kts 49°
2026-04-25 02:04 10.31031 123.97956 44 ft 86 kts 45°
2026-04-25 02:04 10.31338 123.98259 44 ft 36 kts 44°
2026-04-25 02:04 10.31485 123.98405 44 ft 28 kts 45°
2026-04-25 02:04 10.31593 123.98513 44 ft 11 kts 45°
2026-04-25 02:05 10.31645 123.98545 44 ft 8 kts
2026-04-25 02:05 10.31693 123.98518 44 ft 8 kts 302°
2026-04-25 02:05 10.31678 123.98459 44 ft 9 kts 225°
2026-04-25 02:05 10.31628 123.98408 44 ft 10 kts 225°
2026-04-25 02:06 10.31577 123.98358 44 ft 11 kts 224°
2026-04-25 02:06 10.31517 123.98298 44 ft 9 kts 225°
2026-04-25 02:06 10.31483 123.98258 44 ft 7 kts 248°
2026-04-25 02:06 10.31501 123.98210 44 ft 8 kts 313°
2026-04-25 02:07 10.31545 123.98166 44 ft 9 kts 315°
2026-04-25 02:07 10.31563 123.98106 44 ft 8 kts 242°
2026-04-25 02:07 10.31519 123.98061 44 ft 9 kts 224°
2026-04-25 02:07 10.31502 123.98039 44 ft 3 kts 249°
2026-04-25 02:08 10.31511 123.98015 44 ft 4 kts 317°
2026-04-25 02:08 10.31537 123.97990 44 ft 5 kts 314°
2026-04-25 02:08 10.31549 123.97977 44 ft 1 kts 314°
2026-04-25 02:08 10.31550 123.97977 44 ft 0 kts 314°